Hourly Data Report for May 31, 2012

HALIFAX STANFIELD INT'L A
NOVA SCOTIA

44°52'48.060" N
63°30'00.050" W
145.40 m
8202250
71395
YHZ

Download Data

Hourly Data (May 2012)
Hourly Data Report for May 31, 2012
TIME
LST
Temp Definition
°C
Dew Point Definition
°C
Rel Hum Definition
%
Precip. Amount Definition
mm

Wind Dir Definition
10's deg

Wind Spd Definition
km/h
Visibility Definition
km
Stn Press Definition
kPa
Hmdx Definition


Wind Chill Definition


Weather Definition


00:00 9.0 9.0 100   3 4 0.2 99.02     Fog
01:00 9.0 9.0 100   36 4 0.4 99.02     Fog
02:00 8.5 8.5 100   35 6 1.2 99.06     Fog
03:00 8.6 8.5 99   35 7 0.4 99.10     Fog
04:00 8.9 8.8 99   34 6 0.4 99.13     Fog
05:00 9.2 9.1 99   36 9 1.6 99.16     Fog
06:00 9.4 9.3 99   2 11 1.6 99.20     Fog
07:00 9.8 9.4 97   5 13 4.8 99.20     Fog
08:00 9.5 9.3 99   4 11 16.1 99.28     Cloudy
09:00 11.2 10.3 94   8 13 16.1 99.22     Cloudy
10:00 12.5 10.4 87   2 6 24.1 99.23     Cloudy
11:00 13.2 10.5 84   12 7 24.1 99.28     Cloudy
12:00 15.8 12.3 80   17 9 24.1 99.22     Mostly Cloudy
13:00 15.9 12.3 79   18 15 24.1 99.23     Mostly Cloudy
14:00 15.3 11.8 80   18 15 24.1 99.25     Mostly Cloudy
15:00 15.6 11.5 77   17 13 24.1 99.23     Mostly Cloudy
16:00 15.2 11.3 78   16 19 24.1 99.22     Mostly Cloudy
17:00 12.7 10.2 85   17 17 24.1 99.29     Mostly Cloudy
18:00 11.3 9.5 89   19 15 19.3 99.32     Cloudy
19:00 10.5 9.3 92   19 15 19.3 99.36     Cloudy
20:00 9.9 8.9 93   18 9 16.1 99.38     Cloudy
21:00 9.7 8.7 93   21 7 16.1 99.44     Cloudy
22:00 9.1 8.5 96   16 9 24.1 99.44     Cloudy
23:00 8.5 8.2 98   14 4 3.2 99.42     Fog

Notes on Data Quality.

Legend

  • E = Estimated
  • M = Missing
  • NA = Not Available*
  • [empty] = Indicates an unobserved value
Date modified: